| time (UTC) | temp C | wind direction | speed KPH | gust KPH | rain 1hr cm | rain 24hr cm | rain mn cm | humidity % | barometer mb |
| 20260505035548 | 3 | 201 | 9.7 | 16.1 | 0.03 | 0.56 | 0.56 | 89 | 1014.5 |
| 20260505035049 | 4 | 200 | 8.0 | 16.1 | 0.03 | 0.56 | 0.56 | 89 | 1014.6 |
| 20260505034550 | 4 | 202 | 11.3 | 16.1 | 0.08 | 0.56 | 0.56 | 89 | 1014.5 |
| 20260505034048 | 4 | 206 | 12.9 | 16.1 | 0.13 | 0.56 | 0.56 | 89 | 1014.5 |
| 20260505033546 | 4 | 206 | 9.7 | 16.1 | 0.20 | 0.56 | 0.56 | 89 | 1014.6 |
| 20260505033045 | 4 | 204 | 12.9 | 16.1 | 0.25 | 0.56 | 0.56 | 89 | 1014.7 |
| 20260505032545 | 4 | 197 | 11.3 | 16.1 | 0.30 | 0.56 | 0.56 | 89 | 1014.6 |
| 20260505032043 | 4 | 200 | 11.3 | 16.1 | 0.38 | 0.56 | 0.56 | 89 | 1014.7 |
| 20260505031548 | 4 | 226 | 6.4 | 16.1 | 0.43 | 0.56 | 0.56 | 89 | 1014.7 |
| 20260505031042 | 4 | 191 | 8.0 | 16.1 | 0.48 | 0.56 | 0.56 | 89 | 1014.7 |
| 20260505030545 | 4 | 191 | 9.7 | 14.5 | 0.48 | 0.53 | 0.53 | 89 | 1014.6 |
| 20260505030042 | 4 | 192 | 8.0 | 14.5 | 0.48 | 0.53 | 0.53 | 88 | 1014.5 |
| 20260505025541 | 4 | 292 | 6.4 | 9.7 | 0.48 | 0.53 | 0.53 | 88 | 1014.4 |
| 20260505025039 | 4 | 292 | 0.0 | 11.3 | 0.48 | 0.51 | 0.51 | 87 | 1014.4 |
| 20260505024538 | 5 | 292 | 6.4 | 14.5 | 0.46 | 0.48 | 0.48 | 87 | 1014.4 |
| 20260505024037 | 5 | 292 | 8.0 | 17.7 | 0.41 | 0.43 | 0.43 | 86 | 1014.4 |
| 20260505023535 | 5 | 304 | 11.3 | 20.9 | 0.33 | 0.36 | 0.36 | 86 | 1014.4 |
| 20260505023036 | 5 | 293 | 11.3 | 20.9 | 0.25 | 0.28 | 0.28 | 85 | 1014.4 |
| 20260505022534 | 5 | 311 | 11.3 | 20.9 | 0.20 | 0.23 | 0.23 | 85 | 1014.2 |
| 20260505022032 | 6 | 300 | 11.3 | 20.9 | 0.15 | 0.18 | 0.18 | 84 | 1013.9 |
| 20260505021534 | 6 | 299 | 12.9 | 20.9 | 0.08 | 0.10 | 0.10 | 83 | 1013.8 |
| 20260505021028 | 6 | 292 | 11.3 | 19.3 | 0.05 | 0.08 | 0.08 | 82 | 1013.6 |
| 20260505020527 | 6 | 299 | 11.3 | 19.3 | 0.03 | 0.05 | 0.05 | 81 | 1013.5 |
| 20260505020030 | 6 | 296 | 11.3 | 17.7 | 0.03 | 0.05 | 0.05 | 80 | 1013.4 |
| 20260505015525 | 6 | 295 | 8.0 | 17.7 | 0.03 | 0.05 | 0.05 | 79 | 1013.4 |
| 20260505015024 | 7 | 302 | 8.0 | 17.7 | 0.00 | 0.03 | 0.03 | 78 | 1013.3 |
| 20260505014522 | 7 | 295 | 9.7 | 17.7 | 0.00 | 0.03 | 0.03 | 77 | 1013.2 |
| 20260505014020 | 7 | 285 | 6.4 | 17.7 | 0.00 | 0.03 | 0.03 | 76 | 1013.1 |
| 20260505013520 | 7 | 301 | 6.4 | 12.9 | 0.00 | 0.03 | 0.03 | 74 | 1013.0 |
| 20260505013023 | 7 | 336 | 6.4 | 12.9 | 0.00 | 0.03 | 0.03 | 74 | 1012.8 |
| 20260505012518 | 7 | 350 | 4.8 | 12.9 | 0.00 | 0.03 | 0.03 | 73 | 1012.8 |
| 20260505012016 | 8 | 21 | 1.6 | 11.3 | 0.00 | 0.03 | 0.03 | 72 | 1012.9 |
| 20260505011522 | 8 | 21 | 1.6 | 14.5 | 0.00 | 0.03 | 0.03 | 69 | 1012.7 |
| 20260505011014 | 8 | 34 | 6.4 | 14.5 | 0.00 | 0.03 | 0.03 | 67 | 1012.5 |
| 20260505010513 | 8 | 23 | 0.0 | 4.8 | 0.00 | 0.03 | 0.03 | 64 | 1012.7 |
| 20260505010023 | 8 | 23 | 1.6 | 8.0 | 0.00 | 0.03 | 0.03 | 62 | 1012.8 |
| 20260505005513 | 8 | 23 | 3.2 | 8.0 | 0.00 | 0.03 | 0.03 | 63 | 1012.7 |
| 20260505005013 | 8 | 23 | 0.0 | 9.7 | 0.00 | 0.03 | 0.03 | 63 | 1012.7 |
| 20260505004513 | 9 | 23 | 1.6 | 9.7 | 0.00 | 0.03 | 0.03 | 63 | 1012.7 |
| 20260505004012 | 9 | 23 | 1.6 | 8.0 | 0.00 | 0.03 | 0.03 | 62 | 1012.8 |
| 20260505003512 | 9 | 23 | 1.6 | 11.3 | 0.00 | 0.03 | 0.03 | 63 | 1012.7 |
| 20260505003012 | 9 | 23 | 6.4 | 12.9 | 0.00 | 0.03 | 0.03 | 63 | 1012.6 |
| 20260505002512 | 9 | 23 | 3.2 | 12.9 | 0.00 | 0.03 | 0.03 | 63 | 1012.5 |
| 20260505002012 | 9 | 23 | 1.6 | 9.7 | 0.00 | 0.03 | 0.03 | 62 | 1012.6 |
| 20260505001512 | 10 | 23 | 3.2 | 9.7 | 0.00 | 0.03 | 0.03 | 62 | 1012.6 |
| 20260505001111 | 10 | 23 | 0.0 | 8.0 | 0.00 | 0.03 | 0.03 | 62 | 1012.6 |
| 20260505000510 | 10 | 23 | 3.2 | 8.0 | 0.00 | 0.03 | 0.03 | 62 | 1012.5 |
| 20260505000016 | 9 | 23 | 1.6 | 6.4 | 0.00 | 0.03 | 0.03 | 64 | 1012.3 |
| 20260504235510 | 9 | 257 | 0.0 | 6.4 | 0.00 | 0.03 | 0.03 | 67 | 1012.3 |
| 20260504235010 | 9 | 178 | 0.0 | 6.4 | 0.00 | 0.03 | 0.03 | 70 | 1012.2 |
| 20260504234510 | 9 | 178 | 1.6 | 6.4 | 0.00 | 0.03 | 0.03 | 67 | 1012.3 |
| 20260504234010 | 9 | 178 | 1.6 | 6.4 | 0.00 | 0.03 | 0.03 | 69 | 1012.1 |
| 20260504233509 | 9 | 178 | 1.6 | 8.0 | 0.00 | 0.03 | 0.03 | 70 | 1012.2 |
| 20260504233009 | 9 | 178 | 4.8 | 8.0 | 0.03 | 0.03 | 0.03 | 70 | 1012.3 |
| 20260504232510 | 9 | 102 | 1.6 | 4.8 | 0.03 | 0.03 | 0.03 | 70 | 1012.3 |
| 20260504232009 | 9 | 102 | 0.0 | 4.8 | 0.03 | 0.03 | 0.03 | 70 | 1012.1 |
| 20260504231509 | 9 | 102 | 1.6 | 4.8 | 0.03 | 0.03 | 0.03 | 70 | 1012.2 |
| 20260504231010 | 9 | 102 | 0.0 | 4.8 | 0.03 | 0.03 | 0.03 | 69 | 1012.1 |
| 20260504230509 | 9 | 102 | 0.0 | 6.4 | 0.03 | 0.03 | 0.03 | 70 | 1011.9 |
| 20260504230009 | 9 | 102 | 1.6 | 9.7 | 0.03 | 0.03 | 0.03 | 72 | 1011.9 |
| 20260504225508 | 8 | 102 | 6.4 | 9.7 | 0.03 | 0.03 | 0.03 | 70 | 1011.8 |
| 20260504225008 | 8 | 200 | 1.6 | 4.8 | 0.03 | 0.03 | 0.03 | 74 | 1012.1 |
| 20260504224507 | 8 | 200 | 0.0 | 4.8 | 0.03 | 0.03 | 0.03 | 74 | 1012.1 |
| 20260504224007 | 8 | 200 | 0.0 | 3.2 | 0.03 | 0.03 | 0.03 | 73 | 1012.3 |
| 20260504223506 | 8 | 200 | 0.0 | 16.1 | 0.03 | 0.03 | 0.03 | 68 | 1012.4 |
| 20260504223005 | 9 | 200 | 8.0 | 25.7 | 0.00 | 0.00 | 0.00 | 64 | 1012.6 |
| 20260504222504 | 9 | 184 | 14.5 | 25.7 | 0.00 | 0.00 | 0.00 | 60 | 1012.8 |
| 20260504222002 | 10 | 230 | 16.1 | 24.1 | 0.00 | 0.00 | 0.00 | 57 | 1012.8 |
| 20260504221505 | 10 | 230 | 8.0 | 14.5 | 0.00 | 0.00 | 0.00 | 50 | 1012.7 |
| 20260504221001 | 10 | 250 | 6.4 | 17.7 | 0.00 | 0.00 | 0.00 | 50 | 1012.6 |
| 20260504220501 | 10 | 348 | 6.4 | 22.5 | 0.00 | 0.00 | 0.00 | 50 | 1012.1 |
| 20260504220001 | 11 | 358 | 9.7 | 25.7 | 0.00 | 0.00 | 0.00 | 49 | 1011.5 |
| 20260504215501 | 11 | 28 | 14.5 | 32.2 | 0.00 | 0.00 | 0.00 | 49 | 1010.8 |
| 20260504215102 | 11 | 7 | 12.9 | 32.2 | 0.00 | 0.00 | 0.00 | 49 | 1010.6 |
| 20260504214609 | 11 | 27 | 11.3 | 24.1 | 0.00 | 0.00 | 0.00 | 49 | 1010.4 |
| 20260504214100 | 11 | 25 | 8.0 | 30.6 | 0.00 | 0.00 | 0.00 | 49 | 1010.6 |
| 20260504213559 | 11 | 15 | 12.9 | 40.2 | 0.00 | 0.00 | 0.00 | 49 | 1010.5 |
| 20260504213112 | 11 | 19 | 17.7 | 40.2 | 0.00 | 0.00 | 0.00 | 48 | 1010.5 |
| 20260504212558 | 11 | 351 | 20.9 | 38.6 | 0.00 | 0.00 | 0.00 | 46 | 1010.7 |
| 20260504212058 | 11 | 4 | 19.3 | 38.6 | 0.00 | 0.00 | 0.00 | 45 | 1010.8 |
| 20260504211557 | 11 | 13 | 17.7 | 41.8 | 0.00 | 0.00 | 0.00 | 44 | 1010.8 |
| 20260504211057 | 11 | 344 | 20.9 | 41.8 | 0.00 | 0.00 | 0.00 | 44 | 1010.6 |
| 20260504210557 | 11 | 26 | 22.5 | 32.2 | 0.00 | 0.00 | 0.00 | 44 | 1010.6 |
| 20260504210057 | 12 | 31 | 19.3 | 40.2 | 0.00 | 0.00 | 0.00 | 42 | 1010.5 |
| 20260504205556 | 12 | 37 | 17.7 | 40.2 | 0.00 | 0.00 | 0.00 | 38 | 1010.5 |
| 20260504205054 | 13 | 5 | 17.7 | 35.4 | 0.00 | 0.00 | 0.00 | 37 | 1010.5 |
| 20260504204559 | 15 | 29 | 12.9 | 32.2 | 0.00 | 0.00 | 0.00 | 33 | 1010.4 |
| 20260504204053 | 16 | 17 | 11.3 | 32.2 | 0.00 | 0.00 | 0.00 | 31 | 1010.6 |
| 20260504203554 | 16 | 173 | 8.0 | 27.4 | 0.00 | 0.00 | 0.00 | 32 | 1010.6 |
| 20260504203153 | 16 | 240 | 12.9 | 27.4 | 0.00 | 0.00 | 0.00 | 32 | 1010.6 |
| 20260504202553 | 16 | 245 | 14.5 | 30.6 | 0.00 | 0.00 | 0.00 | 33 | 1010.5 |
| 20260504202053 | 16 | 230 | 19.3 | 32.2 | 0.00 | 0.00 | 0.00 | 32 | 1010.5 |
| 20260504201553 | 15 | 194 | 16.1 | 37.0 | 0.00 | 0.00 | 0.00 | 33 | 1010.5 |
| 20260504201052 | 15 | 202 | 20.9 | 38.6 | 0.00 | 0.00 | 0.00 | 33 | 1010.5 |
| 20260504200552 | 14 | 167 | 25.7 | 41.8 | 0.00 | 0.00 | 0.00 | 34 | 1010.7 |
| 20260504200053 | 14 | 215 | 25.7 | 41.8 | 0.00 | 0.00 | 0.00 | 36 | 1010.7 |
| 20260504195552 | 14 | 200 | 29.0 | 53.1 | 0.00 | 0.00 | 0.00 | 36 | 1010.6 |
| 20260504195053 | 14 | 202 | 41.8 | 53.1 | 0.00 | 0.00 | 0.00 | 36 | 1010.6 |
| 20260504194556 | 14 | 179 | 35.4 | 54.7 | 0.00 | 0.00 | 0.00 | 36 | 1010.6 |
| 20260504194051 | 14 | 189 | 40.2 | 54.7 | 0.00 | 0.00 | 0.00 | 36 | 1010.6 |
| 20260504193553 | 15 | 184 | 25.7 | 43.5 | 0.00 | 0.00 | 0.00 | 31 | 1010.7 |
| 20260504193050 | 15 | 225 | 24.1 | 41.8 | 0.00 | 0.00 | 0.00 | 28 | 1010.6 |
| 20260504192549 | 15 | 244 | 27.4 | 41.8 | 0.00 | 0.00 | 0.00 | 27 | 1010.5 |
| 20260504192050 | 15 | 230 | 27.4 | 38.6 | 0.00 | 0.00 | 0.00 | 29 | 1010.5 |
| 20260504191549 | 15 | 189 | 22.5 | 38.6 | 0.00 | 0.00 | 0.00 | 29 | 1010.6 |
| 20260504191049 | 15 | 235 | 27.4 | 38.6 | 0.00 | 0.00 | 0.00 | 27 | 1010.6 |
| 20260504190549 | 16 | 230 | 19.3 | 29.0 | 0.00 | 0.00 | 0.00 | 28 | 1010.7 |
| 20260504190048 | 16 | 254 | 6.4 | 17.7 | 0.00 | 0.00 | 0.00 | 29 | 1010.8 |
| 20260504185547 | 16 | 322 | 4.8 | 22.5 | 0.00 | 0.00 | 0.00 | 29 | 1010.9 |
| 20260504185046 | 16 | 240 | 16.1 | 24.1 | 0.00 | 0.00 | 0.00 | 29 | 1010.9 |
| 20260504184546 | 16 | 294 | 14.5 | 32.2 | 0.00 | 0.00 | 0.00 | 27 | 1011.0 |
| 20260504184046 | 17 | 290 | 12.9 | 32.2 | 0.00 | 0.00 | 0.00 | 27 | 1011.0 |
| 20260504183545 | 17 | 280 | 14.5 | 22.5 | 0.00 | 0.00 | 0.00 | 26 | 1011.1 |
| 20260504183045 | 17 | 297 | 11.3 | 25.7 | 0.00 | 0.00 | 0.00 | 28 | 1011.1 |
| 20260504182542 | 17 | 322 | 11.3 | 25.7 | 0.00 | 0.00 | 0.00 | 28 | 1011.2 |
| 20260504182042 | 16 | 300 | 9.7 | 25.7 | 0.00 | 0.00 | 0.00 | 30 | 1011.3 |
| 20260504181540 | 16 | 325 | 16.1 | 25.7 | 0.00 | 0.00 | 0.00 | 30 | 1011.5 |
| 20260504181039 | 15 | 270 | 12.9 | 25.7 | 0.00 | 0.00 | 0.00 | 32 | 1011.7 |
| 20260504180537 | 15 | 302 | 16.1 | 25.7 | 0.00 | 0.00 | 0.00 | 32 | 1011.8 |
| 20260504180045 | 15 | 226 | 11.3 | 25.7 | 0.00 | 0.00 | 0.00 | 32 | 1011.9 |
| 20260504175535 | 15 | 264 | 14.5 | 27.4 | 0.00 | 0.00 | 0.00 | 32 | 1012.0 |
| 20260504175035 | 15 | 269 | 16.1 | 29.0 | 0.00 | 0.00 | 0.00 | 33 | 1012.1 |
| 20260504174532 | 14 | 273 | 17.7 | 30.6 | 0.00 | 0.00 | 0.00 | 34 | 1012.3 |
| 20260504174032 | 14 | 287 | 19.3 | 27.4 | 0.00 | 0.00 | 0.00 | 34 | 1012.3 |
| 20260504173531 | 13 | 278 | 17.7 | 27.4 | 0.00 | 0.00 | 0.00 | 35 | 1012.3 |
| 20260504173032 | 13 | 283 | 16.1 | 25.7 | 0.00 | 0.00 | 0.00 | 35 | 1012.4 |
| 20260504172526 | 13 | 271 | 9.7 | 22.5 | 0.00 | 0.00 | 0.00 | 36 | 1012.5 |
| 20260504172025 | 13 | 323 | 12.9 | 25.7 | 0.00 | 0.00 | 0.00 | 36 | 1012.6 |
| 20260504171530 | 13 | 304 | 16.1 | 22.5 | 0.00 | 0.00 | 0.00 | 36 | 1012.7 |
| 20260504171022 | 12 | 275 | 14.5 | 27.4 | 0.00 | 0.00 | 0.00 | 36 | 1012.7 |
| 20260504170520 | 12 | 235 | 11.3 | 35.4 | 0.00 | 0.00 | 0.00 | 37 | 1012.7 |
| 20260504151000 | 12 | 240 | 14.5 | 27.4 | 0.00 | 0.00 | 0.00 | 34 | 1012.5 |
| 20260504150501 | 12 | 230 | 16.1 | 27.4 | 0.00 | 0.00 | 0.00 | 35 | 1012.5 |
| 20260504150111 | 12 | 175 | 12.9 | 25.7 | 0.00 | 0.00 | 0.00 | 34 | 1012.7 |
| 20260504141051 | 11 | 240 | 27.4 | 35.4 | 0.00 | 0.00 | 0.00 | 33 | 1012.5 |
| 20260504140550 | 11 | 247 | 25.7 | 33.8 | 0.00 | 0.00 | 0.00 | 32 | 1012.6 |
| 20260504130543 | 11 | 257 | 6.4 | 12.9 | 0.00 | 0.00 | 0.00 | 28 | 1012.8 |
| 20260504110527 | 11 | 246 | 20.9 | 27.4 | 0.00 | 0.00 | 0.00 | 26 | 1012.1 |
| 20260504100522 | 10 | 211 | 12.9 | 19.3 | 0.00 | 0.00 | 0.00 | 28 | 1012.4 |
| 20260504082005 | 10 | 235 | 4.8 | 8.0 | 0.00 | 0.00 | 0.00 | 29 | 1013.2 |
| 20260504081505 | 10 | 291 | 3.2 | 8.0 | 0.00 | 0.00 | 0.00 | 28 | 1013.2 |
| 20260504081008 | 10 | 291 | 0.0 | 16.1 | 0.00 | 0.00 | 0.00 | 28 | 1013.3 |
| 20260504080505 | 10 | 284 | 8.0 | 16.1 | 0.00 | 0.00 | 0.00 | 27 | 1013.3 |
| 20260504050543 | 10 | 192 | 6.4 | 14.5 | 0.00 | 0.00 | 0.00 | 35 | 1014.2 |
| 20260504045542 | 10 | 186 | 6.4 | 14.5 | 0.00 | 0.00 | 0.00 | 36 | 1014.2 |
| 20260504045043 | 10 | 208 | 6.4 | 14.5 | 0.00 | 0.00 | 0.00 | 36 | 1014.2 |
| 20260504044542 | 10 | 208 | 6.4 | 12.9 | 0.00 | 0.00 | 0.00 | 36 | 1014.3 |
| 20260504044041 | 10 | 205 | 4.8 | 12.9 | 0.00 | 0.00 | 0.00 | 35 | 1014.3 |
| 20260504043541 | 11 | 267 | 6.4 | 12.9 | 0.00 | 0.00 | 0.00 | 34 | 1014.3 |
| 20260504043041 | 10 | 259 | 6.4 | 12.9 | 0.00 | 0.00 | 0.00 | 34 | 1014.3 |
| 20260504042541 | 10 | 190 | 4.8 | 8.0 | 0.00 | 0.00 | 0.00 | 36 | 1014.3 |
| 20260504042040 | 10 | 235 | 4.8 | 9.7 | 0.00 | 0.00 | 0.00 | 35 | 1014.3 |
| 20260504041540 | 11 | 207 | 4.8 | 12.9 | 0.00 | 0.00 | 0.00 | 35 | 1014.3 |
| 20260504041039 | 11 | 215 | 3.2 | 16.1 | 0.00 | 0.00 | 0.00 | 34 | 1014.4 |
| 20260504040541 | 11 | 200 | 8.0 | 16.1 | 0.00 | 0.00 | 0.00 | 34 | 1014.4 |
| 20260504040100 | 12 | 206 | 8.0 | 16.1 | 0.00 | 0.00 | 0.00 | 33 | 1014.4 |